Simultaneous Nadir Overpasses (SNOs) Predictions

Prediction of SNOs between GOES-16 and AQUA Satellite Orbit:

Table of predicted SNOs for the next 14.0 days since TLE Epoch: 11/7/2020
Index Date Time (GOES-16) GOES-16 Lat,Lon AQUA Lat,Lon Distance(km) Time Diff (sec)
1 11/07/2020 06:17:17 0.01, -75.17 -0.87, -70.92 483.66 80
2 11/07/2020 18:38:40 -0.01, -75.19 -0.21, -76.11 104.44 80
3 11/09/2020 18:29:09 -0.01, -75.20 0.45, -73.16 232.97 80
4 11/10/2020 06:50:25 0.00, -75.19 0.64, -78.32 354.86 80
5 11/12/2020 06:38:13 0.01, -75.21 0.03, -75.36 16.66 80
6 11/14/2020 06:23:21 0.01, -75.23 -0.58, -72.40 322.01 80
7 11/14/2020 18:44:45 -0.01, -75.25 -0.49, -77.59 266.08 80
8 11/16/2020 18:35:13 -0.01, -75.28 0.13, -74.64 72.99 80
9 11/18/2020 18:23:01 -0.00, -75.31 0.76, -71.68 412.42 80
10 11/19/2020 06:44:17 0.00, -75.30 0.33, -76.84 174.37 80
